Dewpoint
21 20 22 20 20 21 21 20 18 16 15 19 23 27 29 32 36 38 38 37 36 36 34 32 29 27 24 22 22 23 24 24 22 20 18 19 19 20 21 21 21 22 22 23
18 21 20 18 20 21 20 20 19 16 15 19 25 30 31 34 36 37 36 34 34 34 30 28 24 22 20 20 20 21 20 17 17 18 17 18 18 19 19 21 21 22 23 24
18 21 20 19 20 19 21 20 21 17 16 23 28 30 32 35 36 35 34 33 31 28 26 22 18 17 18 17 16 14 14 14 14 16 16 16 18 19 20 21 22 22 22 22
21 21 16 17 23 20 20 21 21 21 23 23 27 30 33 35 34 32 30 27 24 21 17 16 15 16 15 15 15 16 14 14 16 17 18 19 20 20 21 21 21 21 21 22
22 18 18 16 19 21 21 20 22 21 24 26 31 31 30 32 30 27 23 20 17 15 14 14 13 13 13 14 14 13 14 17 18 20 20 20 20 21 21 21 21 21 21 22
24 19 15 15 20 24 22 17 25 23 27 29 30 29 29 26 22 19 15 14 11 11 12 11 11 11 10 11 11 15 18 20 20 21 21 20 21 21 21 20 21 22 22 22
22 18 18 20 23 24 16 16 25 25 28 29 26 28 25 21 15 12 10 10 11 10 10 10 10 11 12 14 17 20 21 21 21 21 20 20 20 20 21 22 22 21 21 21
21 15 14 20 23 20 23 27 26 29 29 26 23 20 14 11 10 10 12 12 11 12 14 15 16 15 16 17 20 20 20 20 20 20 19 19 20 22 22 21 21 21 21 22
22 20 19 20 21 23 26 26 27 27 24 21 15 12 11 10 9 10 11 13 14 15 16 17 17 17 16 17 19 19 19 19 18 18 18 19 21 21 21 21 21 21 22 25
19 17 17 19 20 21 22 24 23 20 15 13 12 11 9 9 10 11 12 13 14 14 14 15 15 16 17 18 20 19 18 18 18 18 20 21 21 22 22 21 23 23 24 26
14 15 18 18 17 16 15 14 14 14 13 12 10 10 9 10 11 11 12 13 13 14 15 16 17 18 19 20 19 18 18 18 19 21 22 22 22 22 23 24 23 22 24 23
16 16 18 17 14 14 13 12 11 11 10 10 10 10 11 11 12 13 14 16 16 17 17 18 18 19 19 19 19 18 18 19 21 21 21 21 22 25 26 25 25 24 25 24
14 17 13 12 12 12 11 10 10 10 10 10 11 11 12 12 13 19 16 17 18 18 19 19 19 18 19 20 19 19 19 21 22 22 22 22 25 23 22 22 23 23 23 24
14 14 14 12 10 10 11 11 14 11 12 13 13 14 15 16 17 16 17 18 19 19 20 19 18 18 19 20 20 21 21 22 22 22 23 26 23 23 21 21 20 21 22 24
15 14 12 12 12 12 11 12 12 13 14 14 15 15 15 16 17 18 20 19 19 19 19 18 18 18 20 21 21 21 20 22 23 25 26 23 22 21 20 21 21 19 20 23
14 13 12 11 11 11 11 12 12 12 13 14 14 15 16 17 19 19 19 19 19 19 18 18 19 19 21 21 22 21 21 23 26 23 21 21 21 20 22 22 20 20 21 21
23 23 21 17 13 12 12 13 14 14 14 14 15 16 18 19 19 19 20 19 19 18 18 19 19 22 23 25 23 20 23 26 22 21 21 20 20 23 22 23 22 22 22 22
26 22 18 15 12 13 14 14 15 15 16 17 18 18 18 18 18 19 19 18 18 18 19 20 22 23 23 25 25 25 24 22 21 21 21 21 25 23 23 24 24 21 21 21
15 15 15 15 15 15 15 16 17 18 18 18 18 19 19 20 20 19 18 17 17 17 19 21 22 24 25 23 26 24 22 21 21 22 21 23 23 23 23 23 22 22 21 22
17 17 18 18 18 17 17 18 18 18 19 19 19 19 19 19 18 17 17 16 17 18 21 21 23 24 24 24 24 21 22 23 22 22 23 23 22 22 22 21 21 21 20 21
17 17 17 18 17 18 18 18 19 18 19 19 19 19 17 16 16 16 16 16 18 21 21 22 24 25 27 23 22 20 23 23 23 23 22 21 21 21 21 21 21 21 20 19
15 15 15 16 16 17 18 18 18 19 18 17 16 16 16 16 16 16 17 16 18 21 23 25 25 25 23 24 21 22 23 23 23 22 20 21 21 20 20 20 19 20 18 14
14 14 14 15 16 16 16 16 16 16 16 16 17 17 16 16 16 14 15 20 19 21 24 25 27 24 23 21 22 22 23 22 19 19 19 21 20 20 20 19 20 20 19 17
15 15 15 15 16 16 16 16 15 16 16 16 16 15 15 14 15 17 18 19 22 25 23 25 25 23 22 23 22 22 22 21 21 20 19 20 20 20 20 20 16 18 18 18
15 14 14 14 14 15 14 14 14 14 15 15 15 15 15 16 14 18 19 22 24 23 23 27 25 24 23 23 22 21 21 21 21 21 20 20 20 20 20 17 16 19 21 19
14 14 13 14 13 13 14 15 16 15 16 14 15 16 16 18 18 21 22 24 23 24 21 21 20 23 22 19 21 20 20 20 21 21 21 21 21 21 19 16 16 17 19 19
13 17 13 13 14 14 16 16 14 13 15 16 16 16 17 20 19 21 23 21 21 21 19 20 20 17 22 22 21 20 20 20 20 21 21 21 21 21 18 17 16 14 18 20
Lifted_Index
2 1 1 1 1 2 2 2 2 3 3 3 3 3 3 4 6 7 7 7 8 8 8 8 9 9 10 11 12 12 13 13 13 15 17 18 19 20 20 20 20 21 21 21
1 1 1 1 2 2 2 2 2 2 2 3 3 3 3 4 5 6 7 7 8 8 8 8 9 9 10 11 12 13 13 13 14 16 18 19 19 20 20 20 20 21 21 21
1 1 1 2 3 3 3 3 3 2 2 3 3 3 4 4 5 6 6 7 7 7 8 8 9 10 11 12 12 13 13 14 16 17 18 19 19 20 20 20 20 21 20 20
1 1 2 3 4 3 3 3 3 3 3 3 3 4 4 5 5 5 6 6 7 8 8 9 10 11 12 12 13 13 14 16 17 18 19 19 19 20 20 20 20 20 20 20
1 1 3 4 4 4 3 3 3 3 3 4 4 4 4 5 6 6 6 7 8 9 9 10 11 12 13 13 14 15 16 17 18 19 19 19 19 20 20 20 20 20 19 19
1 1 2 3 4 3 3 3 3 3 4 4 4 4 5 6 7 7 7 8 9 10 11 12 13 13 13 14 15 16 17 18 19 19 19 19 20 20 20 20 19 19 19 18
1 1 2 2 3 3 3 3 3 4 4 4 4 5 5 6 7 7 8 9 10 11 12 13 14 15 15 15 16 17 18 19 19 19 19 19 20 20 20 19 19 18 18 18
1 1 1 2 2 3 3 4 4 4 4 4 4 5 5 6 7 8 9 10 12 12 13 15 16 16 16 17 18 18 19 19 19 19 19 19 19 19 19 18 18 17 17 17
0 0 1 1 2 3 3 4 4 4 4 4 4 5 5 6 8 9 10 12 13 13 14 16 17 17 17 18 18 19 19 19 19 19 19 19 19 18 18 17 17 17 17 16
0 0 0 1 2 3 3 3 4 4 4 4 4 5 6 7 9 10 12 13 14 15 15 16 17 18 18 18 18 18 18 19 19 19 18 18 18 18 17 17 17 17 17 17
0 0 0 1 2 3 3 3 3 4 5 5 5 6 7 8 10 12 13 15 16 16 16 17 17 18 18 18 18 18 18 18 18 17 17 17 17 17 18 18 18 18 18 19
0 1 1 2 3 4 3 4 4 5 5 6 7 8 9 11 13 14 15 16 17 17 17 17 17 18 18 18 18 18 17 17 17 17 17 17 17 17 18 19 19 20 19 19
2 3 3 3 4 5 5 5 6 6 7 8 9 11 12 13 15 16 16 16 16 16 17 17 17 17 18 18 18 17 16 16 16 16 16 17 17 17 17 18 19 18 18 17
5 5 5 5 6 7 7 8 8 9 10 11 12 13 14 14 15 15 15 16 16 16 16 17 17 17 17 17 17 16 16 16 16 17 17 17 17 17 17 17 16 15 15 14
8 7 7 8 9 9 10 11 11 12 13 13 14 14 14 14 14 15 15 16 16 16 16 16 16 16 16 17 16 16 16 17 17 17 17 18 18 18 17 16 14 13 13 13
9 9 10 10 11 12 13 13 13 13 14 14 14 14 14 14 14 15 15 15 15 15 15 15 15 16 16 17 17 16 17 17 17 18 18 18 17 16 15 14 12 12 12 12
10 11 11 12 13 13 13 13 13 14 14 14 14 14 14 14 14 14 15 15 15 15 15 15 15 16 17 17 17 17 17 17 17 17 17 17 15 14 13 12 12 12 12 13
12 12 12 12 13 13 13 13 13 14 14 14 14 14 14 14 14 14 14 14 14 14 15 15 16 17 17 17 17 17 17 17 17 16 16 15 13 13 12 12 12 12 13 13
13 13 13 13 13 13 13 13 13 13 13 13 13 13 13 13 13 14 14 14 14 14 15 16 17 17 17 17 17 17 17 16 15 15 14 13 12 12 12 12 12 12 12 12
13 13 13 13 13 13 13 13 13 13 13 13 13 13 13 13 13 14 14 14 14 15 16 16 17 17 17 17 17 16 15 14 13 13 12 12 12 12 12 12 12 12 12 12
12 12 12 12 12 12 12 13 13 12 13 13 13 13 13 13 13 14 14 14 15 16 16 16 17 17 17 16 16 14 13 13 12 12 12 12 12 12 12 12 12 12 12 12
11 11 11 11 11 12 12 12 12 12 12 12 12 12 12 13 13 14 14 14 15 16 16 16 17 16 16 15 14 13 12 12 12 12 12 12 12 12 12 12 12 12 12 12
11 11 11 11 11 11 11 11 12 12 12 12 12 13 13 13 14 14 14 15 16 16 16 16 16 15 14 13 12 12 12 12 12 12 12 12 12 12 12 12 12 12 13 13
10 10 10 10 11 10 11 11 11 12 12 12 13 13 14 14 14 15 15 16 15 15 14 14 14 13 13 12 12 12 12 12 12 12 12 12 12 12 12 13 13 13 13 13
10 10 10 10 10 10 11 11 11 12 12 13 14 14 15 15 15 15 15 15 14 13 13 13 13 13 12 12 12 12 12 12 12 13 13 13 13 13 13 13 13 13 13 14
10 10 10 10 10 10 11 11 11 12 12 13 13 14 15 15 14 14 14 13 13 12 12 12 13 12 12 12 12 13 13 13 13 13 13 13 13 13 13 13 13 13 14 14
10 10 10 10 10 11 11 11 11 11 12 12 12 13 14 14 14 14 13 13 12 12 12 12 13 13 13 13 13 13 13 13 13 13 13 13 13 13 13 13 13 14 14 14